Madison, MN

10:07 PM CDT on September 18, 2019 (GMT -0500)
Madison-Lac Qui Parle County

Weather History for KDXX - July, 2019

Change the Weather History Date:

Wednesday, July 31, 2019

  Actual Average (KAQP) Record (KAQP)
Temperature  
Mean Temperature 71 °F -  
Max Temperature 80 °F 79 °F 98 °F (2006)
Min Temperature 62 °F 58 °F 50 °F (1998)
Cooling Degree Days 6    
Growing Degree Days 21 (Base 50)    
Moisture  
Dew Point 62 °F    
Average Humidity 73    
Maximum Humidity 94    
Minimum Humidity 57    
Precipitation  
Precipitation 0.00 in - - ()
Sea Level Pressure  
Sea Level Pressure 30.10 in    
Wind  
Wind Speed 8 mph (SE)    
Max Wind Speed 15 mph    
Max Gust Speed 20 mph    
Visibility 10 miles    
Events      
Averages and records for this station are not official NWS values.
T = Trace of Precipitation, MM = Missing Value Source: NWS Daily Summary

Daily Weather History Graph

Daily Weather History Graph

Search for Another Location

Airport or City:

Astronomy

Jul. 31, 2019 Rise Set
Actual Time 6:08 AM CDT 8:52 PM CDT
Civil Twilight 5:34 AM CDT 9:26 PM CDT
Nautical Twilight 4:52 AM CDT 10:09 PM CDT
Astronomical Twilight 4:02 AM CDT 10:58 PM CDT
Moon 5:20 AM CDT (7/31) 8:54 PM CDT (7/31)
Length of Visible Light 15h 51m
Length of Day
14h 43m
Waning Crescent, 0% of the Moon is Illuminated
Jul 31
Waning Crescent
Jul 31
New
Aug 7
First Quarter
Aug 15
Full
Aug 23
Last Quarter

Hourly Weather History & Observations

Time (CDT) Temp. Heat Index Dew Point Humidity Pressure Visibility Wind Dir Wind Speed Gust Speed Precip Events Conditions
12:18 AM 64.4 °F - 59.0 °F 83% 30.12 in 10.0 mi ESE 4.6 mph - N/A   Scattered Clouds
12:37 AM 64.4 °F - 59.0 °F 83% 30.11 in 10.0 mi ESE 5.8 mph - N/A   Scattered Clouds
1:15 AM 62.6 °F - 59.0 °F 88% 30.11 in 10.0 mi SE 4.6 mph - N/A   Scattered Clouds
1:16 AM 62.6 °F - 59.0 °F 88% 30.11 in 10.0 mi SE 4.6 mph - N/A   Scattered Clouds
1:35 AM 64.4 °F - 60.8 °F 88% 30.11 in 10.0 mi SE 4.6 mph - N/A   Mostly Cloudy
1:39 AM 64.4 °F - 60.8 °F 88% 30.11 in 10.0 mi SE 5.8 mph - N/A   Mostly Cloudy
1:57 AM 64.4 °F - 59.0 °F 83% 30.10 in 10.0 mi SSE 4.6 mph - N/A   Mostly Cloudy
2:16 AM 64.4 °F - 59.0 °F 83% 30.10 in 10.0 mi SE 5.8 mph - N/A   Mostly Cloudy
2:35 AM 64.4 °F - 59.0 °F 83% 30.10 in 10.0 mi SE 6.9 mph - N/A   Scattered Clouds
2:36 AM 64.4 °F - 59.0 °F 83% 30.10 in 10.0 mi SE 5.8 mph - N/A   Scattered Clouds
2:55 AM 64.4 °F - 57.2 °F 77% 30.10 in 10.0 mi SE 5.8 mph - N/A   Scattered Clouds
2:56 AM 64.4 °F - 57.2 °F 77% 30.10 in 10.0 mi SE 5.8 mph - N/A   Scattered Clouds
3:18 AM 64.4 °F - 57.2 °F 77% 30.10 in 10.0 mi SE 6.9 mph - N/A   Scattered Clouds
3:36 AM 62.6 °F - 57.2 °F 82% 30.10 in 10.0 mi SE 5.8 mph - N/A   Scattered Clouds
3:55 AM 62.6 °F - 57.2 °F 82% 30.10 in 10.0 mi SE 6.9 mph - N/A   Clear
3:56 AM 62.6 °F - 57.2 °F 82% 30.10 in 10.0 mi SE 6.9 mph - N/A   Clear
4:15 AM 62.6 °F - 57.2 °F 82% 30.10 in 10.0 mi SE 5.8 mph - N/A   Scattered Clouds
4:16 AM 62.6 °F - 59.0 °F 88% 30.10 in 10.0 mi SE 5.8 mph - N/A   Scattered Clouds
4:35 AM 62.6 °F - 59.0 °F 88% 30.10 in 10.0 mi SE 6.9 mph - N/A   Scattered Clouds
4:40 AM 62.6 °F - 59.0 °F 88% 30.10 in 10.0 mi SE 5.8 mph - N/A   Scattered Clouds
4:57 AM 62.6 °F - 57.2 °F 82% 30.11 in 10.0 mi SE 5.8 mph - N/A   Scattered Clouds
5:15 AM 62.6 °F - 59.0 °F 88% 30.12 in 10.0 mi SE 4.6 mph - N/A   Scattered Clouds
5:35 AM 62.6 °F - 59.0 °F 88% 30.12 in 10.0 mi SE 4.6 mph - N/A   Mostly Cloudy
5:55 AM 62.6 °F - 59.0 °F 88% 30.11 in 10.0 mi SE 6.9 mph - N/A   Scattered Clouds
5:56 AM 62.6 °F - 59.0 °F 88% 30.11 in 10.0 mi SE 6.9 mph - N/A   Scattered Clouds
6:19 AM 62.6 °F - 59.0 °F 88% 30.12 in 10.0 mi SE 5.8 mph - N/A   Mostly Cloudy
6:37 AM 62.6 °F - 60.8 °F 94% 30.12 in 10.0 mi SE 5.8 mph - N/A   Overcast
6:56 AM 62.6 °F - 60.8 °F 94% 30.12 in 10.0 mi SE 8.1 mph - N/A   Overcast
7:15 AM 64.4 °F - 60.8 °F 88% 30.12 in 10.0 mi SE 9.2 mph - N/A   Mostly Cloudy
7:16 AM 64.4 °F - 59.0 °F 83% 30.12 in 10.0 mi SSE 8.1 mph - N/A   Mostly Cloudy
7:35 AM 64.4 °F - 57.2 °F 77% 30.12 in 10.0 mi SSE 9.2 mph - N/A   Scattered Clouds
7:39 AM 64.4 °F - 57.2 °F 77% 30.12 in 10.0 mi SSE 9.2 mph - N/A   Scattered Clouds
7:57 AM 66.2 °F - 59.0 °F 78% 30.12 in 10.0 mi SE 6.9 mph - N/A   Scattered Clouds
8:15 AM 66.2 °F - 59.0 °F 78% 30.12 in 10.0 mi SSE 8.1 mph - N/A   Scattered Clouds
8:16 AM 66.2 °F - 59.0 °F 78% 30.12 in 10.0 mi SSE 9.2 mph - N/A   Scattered Clouds
8:35 AM 68.0 °F - 59.0 °F 73% 30.12 in 10.0 mi SSE 8.1 mph - N/A   Scattered Clouds
8:36 AM 68.0 °F - 59.0 °F 73% 30.12 in 10.0 mi SSE 8.1 mph - N/A   Scattered Clouds
8:58 AM 69.8 °F - 59.0 °F 68% 30.13 in 10.0 mi SSE 9.2 mph - N/A   Scattered Clouds
9:16 AM 69.8 °F - 60.8 °F 73% 30.12 in 10.0 mi SE 9.2 mph - N/A   Mostly Cloudy
9:35 AM 69.8 °F - 60.8 °F 73% 30.12 in 10.0 mi SSE 9.2 mph - N/A   Mostly Cloudy
9:55 AM 71.6 °F - 60.8 °F 69% 30.12 in 10.0 mi SE 10.4 mph - N/A   Scattered Clouds
9:56 AM 71.6 °F - 60.8 °F 69% 30.12 in 10.0 mi SE 9.2 mph - N/A   Scattered Clouds
10:15 AM 73.4 °F - 60.8 °F 65% 30.12 in 10.0 mi SSE 10.4 mph - N/A   Mostly Cloudy
10:19 AM 73.4 °F - 60.8 °F 65% 30.12 in 10.0 mi South 11.5 mph - N/A   Mostly Cloudy
10:38 AM 73.4 °F - 60.8 °F 65% 30.11 in 10.0 mi SSE 10.4 mph 16.1 mph N/A   Scattered Clouds
10:55 AM 73.4 °F - 60.8 °F 65% 30.11 in 10.0 mi SSE 10.4 mph 17.3 mph N/A   Scattered Clouds
11:15 AM 75.2 °F - 62.6 °F 65% 30.11 in 10.0 mi SSE 13.8 mph 18.4 mph N/A   Scattered Clouds
11:16 AM 75.2 °F - 62.6 °F 65% 30.11 in 10.0 mi SSE 12.7 mph 18.4 mph N/A   Scattered Clouds
11:35 AM 75.2 °F - 62.6 °F 65% 30.11 in 10.0 mi SSE 13.8 mph - N/A   Clear
11:36 AM 75.2 °F - 62.6 °F 65% 30.11 in 10.0 mi SSE 13.8 mph - N/A   Clear
11:58 AM 75.2 °F - 62.6 °F 65% 30.11 in 10.0 mi SSE 10.4 mph 16.1 mph N/A   Clear
12:17 PM 77.0 °F - 62.6 °F 61% 30.10 in 10.0 mi SSE 12.7 mph - N/A   Clear
12:36 PM 77.0 °F - 62.6 °F 61% 30.10 in 10.0 mi SE 15.0 mph 19.6 mph N/A   Clear
12:55 PM 78.8 °F - 62.6 °F 57% 30.10 in 10.0 mi SSE 11.5 mph - N/A   Clear
12:56 PM 78.8 °F - 62.6 °F 57% 30.10 in 10.0 mi SSE 11.5 mph - N/A   Clear
1:15 PM 78.8 °F - 62.6 °F 57% 30.10 in 10.0 mi SSE 12.7 mph - N/A   Clear
1:37 PM 78.8 °F - 64.4 °F 61% 30.10 in 10.0 mi SE 10.4 mph 17.3 mph N/A   Mostly Cloudy
1:55 PM 78.8 °F - 64.4 °F 61% 30.10 in 10.0 mi SSE 11.5 mph - N/A   Mostly Cloudy
2:15 PM 78.8 °F - 64.4 °F 61% 30.10 in 10.0 mi SE 8.1 mph - N/A   Scattered Clouds
2:35 PM 78.8 °F - 64.4 °F 61% 30.10 in 10.0 mi SE 11.5 mph - N/A   Scattered Clouds
2:36 PM 78.8 °F - 64.4 °F 61% 30.10 in 10.0 mi SE 12.7 mph - N/A   Scattered Clouds
2:59 PM 78.8 °F - 64.4 °F 61% 30.10 in 10.0 mi SE 12.7 mph - N/A   Mostly Cloudy
3:16 PM 78.8 °F - 64.4 °F 61% 30.09 in 10.0 mi ESE 12.7 mph 17.3 mph N/A   Overcast
3:36 PM 78.8 °F - 64.4 °F 61% 30.09 in 10.0 mi SE 13.8 mph - N/A   Mostly Cloudy
3:55 PM 78.8 °F - 64.4 °F 61% 30.09 in 10.0 mi SE 10.4 mph - N/A   Mostly Cloudy
3:56 PM 78.8 °F - 64.4 °F 61% 30.09 in 10.0 mi SE 11.5 mph - N/A   Mostly Cloudy
4:15 PM 78.8 °F - 64.4 °F 61% 30.09 in 10.0 mi SE 9.2 mph - N/A   Overcast
4:19 PM 78.8 °F - 64.4 °F 61% 30.09 in 10.0 mi SE 9.2 mph - N/A   Overcast
4:37 PM 78.8 °F - 64.4 °F 61% 30.09 in 10.0 mi SE 8.1 mph - N/A   Overcast
4:56 PM 80.6 °F 82.3 °F 64.4 °F 58% 30.09 in 10.0 mi SE 8.1 mph - N/A   Mostly Cloudy
5:15 PM 80.6 °F 82.3 °F 64.4 °F 58% 30.09 in 10.0 mi SE 13.8 mph - N/A   Scattered Clouds
5:16 PM 80.6 °F 82.3 °F 64.4 °F 58% 30.09 in 10.0 mi SE 11.5 mph - N/A   Scattered Clouds
5:35 PM 80.6 °F 82.3 °F 64.4 °F 58% 30.09 in 10.0 mi SE 10.4 mph - N/A   Scattered Clouds
5:36 PM 80.6 °F 82.3 °F 64.4 °F 58% 30.09 in 10.0 mi SE 11.5 mph - N/A   Scattered Clouds
5:58 PM 80.6 °F 82.3 °F 64.4 °F 58% 30.08 in 10.0 mi SE 12.7 mph - N/A   Clear
6:16 PM 80.6 °F 82.3 °F 64.4 °F 58% 30.08 in 10.0 mi SSE 12.7 mph 16.1 mph N/A   Clear
6:35 PM 78.8 °F - 64.4 °F 61% 30.08 in 10.0 mi SSE 11.5 mph - N/A   Clear
6:55 PM 78.8 °F - 64.4 °F 61% 30.08 in 10.0 mi SE 13.8 mph 17.3 mph N/A   Clear
6:56 PM 78.8 °F - 64.4 °F 61% 30.08 in 10.0 mi SE 13.8 mph 17.3 mph N/A   Clear
7:15 PM 78.8 °F - 64.4 °F 61% 30.08 in 10.0 mi SE 11.5 mph - N/A   Clear
7:38 PM 78.8 °F - 64.4 °F 61% 30.08 in 10.0 mi SE 10.4 mph - N/A   Clear
7:55 PM 77.0 °F - 64.4 °F 65% 30.08 in 10.0 mi SE 8.1 mph - N/A   Clear
8:15 PM 75.2 °F - 64.4 °F 69% 30.09 in 10.0 mi SE 8.1 mph - N/A   Clear
8:16 PM 75.2 °F - 64.4 °F 69% 30.09 in 10.0 mi SE 8.1 mph - N/A   Clear
8:35 PM 75.2 °F - 64.4 °F 69% 30.08 in 10.0 mi SE 6.9 mph - N/A   Scattered Clouds
8:59 PM 73.4 °F - 64.4 °F 73% 30.09 in 10.0 mi SE 6.9 mph - N/A   Mostly Cloudy
9:17 PM 73.4 °F - 64.4 °F 73% 30.09 in 10.0 mi SE 5.8 mph - N/A   Scattered Clouds
9:36 PM 71.6 °F - 64.4 °F 78% 30.09 in 10.0 mi SE 6.9 mph - N/A   Clear
9:55 PM 71.6 °F - 64.4 °F 78% 30.09 in 10.0 mi SE 6.9 mph - N/A   Clear
9:56 PM 71.6 °F - 64.4 °F 78% 30.09 in 10.0 mi SE 6.9 mph - N/A   Clear
10:15 PM 71.6 °F - 64.4 °F 78% 30.10 in 10.0 mi SSE 5.8 mph - N/A   Clear
10:37 PM 71.6 °F - 64.4 °F 78% 30.11 in 10.0 mi SSE 5.8 mph - N/A   Scattered Clouds
10:56 PM 69.8 °F - 64.4 °F 83% 30.10 in 10.0 mi SSE 6.9 mph - N/A   Scattered Clouds
11:15 PM 69.8 °F - 64.4 °F 83% 30.11 in 10.0 mi SSE 4.6 mph - N/A   Clear
11:16 PM 69.8 °F - 64.4 °F 83% 30.11 in 10.0 mi North - - N/A   Clear
11:35 PM 69.8 °F - 66.2 °F 88% 30.11 in 10.0 mi SSE 4.6 mph - N/A   Scattered Clouds
11:36 PM 69.8 °F - 66.2 °F 88% 30.11 in 10.0 mi SSE 4.6 mph - N/A   Scattered Clouds